Current Version              Previous Version:    01  02  03  04  05  06  07  08  09  10  11  12  13  14  15  16  17  18  19  20  21  22  23  24  25  26  27  28  29  30  
   31  32  33  34  35  36  37  38  39  40  41  42  43  44  45  46  47  48  49  50  51  52  53  54  55  56  57  58  59  60  

[Printable]
484
ASUS44 KFWD 302001
RWRTX
NORTH TEXAS HOURLY WEATHER ROUNDUP
NATIONAL WEATHER SERVICE FORT WORTH TX
300 PM CDT TUE SEP 30 2014

NOTE: "FAIR" INDICATES FEW OR NO CLOUDS BELOW 12,000 FEET WITH NO
SIGNIFICANT WEATHER AND/OR OBSTRUCTIONS TO VISIBILITY.

TXZ118-119-302100-
DALLAS/FORT WORTH METROPLEX

CITY           SKY/WX    TMP DP  RH WIND       PRES   REMARKS
DFW AIRPORT    PTSUNNY   90  64  42 SE10      29.79F HX  91
DALLAS LOVE    PTSUNNY   90  64  42 SE15G21   29.79F HX  91
FTW MEACHAM    PTSUNNY   92  61  35 S10G18    29.79F HX  92
DAL-EXECUTIVE  PTSUNNY   89  64  43 S10G17    29.79F HX  90
FTW-ALLIANCE   PTSUNNY   92  62  36 SE10G17   29.79F HX  92
FTW-NAS-JRB    MOSUNNY   93  58  30 VRB5      29.83F HX  92
FTW-SPINKS     PTSUNNY   91  61  35 SE9       29.81F HX  91
ARLINGTON      PTSUNNY   88  62  41 SE13      29.80F
GRAND PRAIRIE  MOSUNNY   88  63  42 MISG      29.81F
ADDISON        PTSUNNY   90  61  37 S9G15     29.80F
MESQUITE       PTSUNNY   91  63  38 SE6G20    29.81F HX  92
LANCASTER        N/A    N/A N/A N/A MISG        N/A
$$

TXZ091>094-102>105-117-120-121-131>134-302100-
NORTH CENTRAL TEXAS

CITY           SKY/WX    TMP DP  RH WIND       PRES   REMARKS
SHRMAN/DENISON MOSUNNY   87  63  43 S12       29.82F
GAINESVILLE    SUNNY     87  64  45 SE10      29.82F
BRIDGEPORT     MOSUNNY   91  50  24 S14G21    29.82F
DECATUR        SUNNY     88  55  32 S10G17    29.81F
DENTON         MOSUNNY   90  61  37 S10G17    29.79F HX  90
MCKINNEY       MOSUNNY   89  63  41 S10       29.80F HX  90
GREENVILLE     MOSUNNY   88  61  40 SE8       29.81F
ROCKWALL       PTSUNNY   90  67  47 SE8       29.79F HX  93
TERRELL        PTSUNNY   91  65  41 SE8       29.81F HX  93
WAXAHACHIE     PTSUNNY   86  66  51 CALM      29.81F
CLEBURNE       SUNNY     91  59  33 S12G17    29.82F HX  90
GRANBURY       MOSUNNY   90  56  31 E7        29.81F
$$

TXZ083>090-098>101-113>116-127>130-139>142-154-155-302100-
WESTERN NORTH TEXAS

CITY           SKY/WX    TMP DP  RH WIND       PRES   REMARKS
WICHITA FALLS  MOSUNNY   91  57  31 S15       29.77F
WF-KICKAPOO    SUNNY     91  52  26 S15G22    29.79F
VERNON         SUNNY     92  55  28 S18G25    29.76F HX  90
ABILENE        MOSUNNY   90  59  35 S14G23    29.82F
ABILENE-DYESS  SUNNY     90  58  34 S13G21    29.80F
MINERAL WELLS  SUNNY     89  55  31 SE7G20    29.79F
STEPHENVILLE   SUNNY     89  53  29 SE5G10    29.85F
COMANCHE       MOSUNNY   90  54  29 SE8       29.82F
COLEMAN        SUNNY     91  55  29 S9G16     29.83F
BRADY          MOSUNNY   90  59  35 S9        29.83F
$$

TXZ143>147-156>162-174-175-302100-
CENTRAL TEXAS

CITY           SKY/WX    TMP DP  RH WIND       PRES   REMARKS
WACO           SUNNY     90  63  40 S10       29.80F HX  91
WACO-TSTC      MOSUNNY   90  63  40 S9        29.80F HX  90
WACO-MCGREGOR  SUNNY     91  61  35 S5        29.80F HX  91
CORSICANA      MOSUNNY   91  66  43 SE12G17   29.81F HX  93
MEXIA          MOSUNNY   87  69  55 SE7       29.81F HX  91
HEARNE         PTSUNNY   87  69  55 E5        29.81F HX  91
CAMERON        PTSUNNY   87  69  53 S6        29.81F HX  91
TEMPLE         MOSUNNY   90  63  40 SE7       29.81F HX  90
KILLEEN        MOSUNNY   90  61  37 S12       29.81F
KILLEEN-SKYLRK MOSUNNY   90  63  40 S12       29.81F HX  90
HAMILTON       PTSUNNY   90  54  28 CALM      29.84F
LAMPASAS       MOSUNNY   87  64  46 SE6       29.82F
$$

TXZ095>097-106>112-122>126-135>138-148>153-164>167-302100-
EAST TEXAS

CITY           SKY/WX    TMP DP  RH WIND       PRES   REMARKS
PARIS          PTSUNNY   86  64  48 SE6       29.84F
SULPHUR SPRNGS MOSUNNY   89  64  42 SE7       29.84F HX  90
MOUNT PLEASANT PTSUNNY   88  64  45 SE3       29.84F
MINEOLA        MOSUNNY   90  64  43 S8        29.83F HX  91
TYLER          MOSUNNY   89  68  49 S6        29.82F HX  93
LONGVIEW       MOSUNNY   88  66  48 SE10      29.82F HX  90
MARSHALL       PTSUNNY   91  68  46 S3        29.84F HX  94
ATHENS         PTSUNNY   90  64  43 SE7       29.80F HX  91
PALESTINE      PTSUNNY   90  69  50 SE8       29.83F HX  94
JACKSONVILLE   MOSUNNY   88  68  51 SE9       29.85F HX  92
HENDERSON      MOSUNNY   89  67  46 SE3       29.83F HX  92
NACOGDOCHES    MOSUNNY   86  70  58 S5        29.83F HX  90
LUFKIN         PTSUNNY   90  69  50 E6        29.82F HX  94
$$

SUPPLEMENTAL OBSERVATIONS (CENTRAL)

CITY           SKY/WX    TMP DP  RH WIND       PRES   REMARKS
$$

SUPPLEMENTAL OBSERVATIONS (WEST)

CITY           SKY/WX    TMP DP  RH WIND       PRES   REMARKS
$$

SUPPLEMENTAL OBSERVATIONS (EAST)

CITY           SKY/WX    TMP DP  RH WIND       PRES   REMARKS
$$

SUPPLEMENTAL OBSERVATIONS ARE A COLLECTION OF AUTOMATED INSTRUMENTS
THAT ARE MAINTAINED BY A VARIETY OF FEDERAL AND STATE AGENCIES.
CERTAIN ELEMENTS...SUCH AS HUMIDITY VALUES AND SUSTAINED WIND
SPEEDS...MAY BE APPROXIMATED.